This is the latest recevied weather packets stored in our database for station/object N4BBA. If no packets are shown the sender has not sent any weather packets the latest 1 day(s).
| Time | Temp. | Humidity | Pressure | Rain* | Wind** | Luminosity | Snow |
|---|---|---|---|---|---|---|---|
| 1778055560 | 15.56° C | 87% | 1014.2 hPa | 0 mm | 0.45 m/s, 135° | 0 W/m² | - |
| 1778055259 | 16.11° C | 87% | 1014 hPa | 0 mm | 0.89 m/s, 144° | 0 W/m² | - |
| 1778054956 | 16.11° C | 87% | 1014 hPa | 0 mm | 0.89 m/s, 173° | 0 W/m² | - |
| 1778054652 | 15.56° C | 87% | 1014 hPa | 0 mm | 1.34 m/s, 143° | 0 W/m² | - |
| 1778054350 | 15.56° C | 87% | 1014.1 hPa | 0 mm | 0 m/s | 0 W/m² | - |
| 1778054048 | 15.56° C | 86% | 1014.1 hPa | 0 mm | 0 m/s | 0 W/m² | - |
| 1778053745 | 16.11° C | 86% | 1014.3 hPa | 0 mm | 0.89 m/s, 134° | 0 W/m² | - |
| 1778053442 | 16.11° C | 86% | 1014.4 hPa | 0 mm | 0.45 m/s, 143° | 0 W/m² | - |
| 1778053139 | 15.56° C | 86% | 1014.2 hPa | 0 mm | 0.45 m/s, 138° | 0 W/m² | - |
| 1778052837 | 16.11° C | 86% | 1014.4 hPa | 0 mm | 0.45 m/s, 115° | 0 W/m² | - |
| 1778052533 | 16.11° C | 85% | 1014.4 hPa | 0 mm | 0.45 m/s, 123° | 0 W/m² | - |
| 1778052231 | 16.11° C | 85% | 1014.2 hPa | 0 mm | 0.45 m/s, 135° | 0 W/m² | - |
| 1778051928 | 16.11° C | 85% | 1014.5 hPa | 0 mm | 0.45 m/s, 140° | 0 W/m² | - |
| 1778051627 | 16.11° C | 84% | 1014.1 hPa | 0 mm | 0.45 m/s, 136° | 0 W/m² | - |
| 1778051323 | 16.11° C | 84% | 1014.1 hPa | 0 mm | 0 m/s | 0 W/m² | - |
| 1778051020 | 16.11° C | 84% | 1014.3 hPa | 0 mm | 0.45 m/s, 144° | 0 W/m² | - |
| 1778050717 | 16.67° C | 84% | 1014.4 hPa | 0 mm | 0.45 m/s, 127° | 0 W/m² | - |
| 1778050415 | 16.67° C | 83% | 1014.3 hPa | 0 mm | 0.45 m/s, 152° | 0 W/m² | - |
| 1778050111 | 16.67° C | 83% | 1014.3 hPa | 0 mm | 0 m/s | 0 W/m² | - |
| 1778049807 | 16.67° C | 83% | 1014.5 hPa | 0 mm | 0.89 m/s, 186° | 0 W/m² | - |
| 1778049504 | 16.67° C | 83% | 1014.6 hPa | 0 mm | 0.89 m/s, 136° | 0 W/m² | - |
| 1778049202 | 16.67° C | 82% | 1014.6 hPa | 0 mm | 0.89 m/s, 180° | 0 W/m² | - |
| 1778048900 | 16.67° C | 82% | 1014.7 hPa | 0 mm | 0.45 m/s, 200° | 0 W/m² | - |
| 1778048597 | 16.67° C | 82% | 1014.7 hPa | 0 mm | 0 m/s | 0 W/m² | - |
| 1778048293 | 16.67° C | 81% | 1014.7 hPa | 0 mm | 0.45 m/s, 176° | 0 W/m² | - |
* Rain latest hour (hover to see other rain measurements)
** Current wind speed in m/s (hover to see current wind gust speed)